Regional Weather Roundup
Issued by NWS

Home | Current Version | Previous Version | Text Only | Print | Product List | Glossary Off
Versions: 1 2 3 4 5 6 7 8 9 10 11 12 13 14 15 16 17 18 19 20 21 22 23 24 25 26 27 28 29 30 31 32 33 34 35 36 37 38 39 40 41 42 43 44 45 46 47 48 49 50

000
ASUS43 KLSX 042157
RWRMO

WEATHER SUMMARY FOR MISSOURI
NATIONAL WEATHER SERVICE SPRINGFIELD MO
500 PM CDT FRI SEP 04 2015

NOTE: "FAIR" INDICATES FEW OR NO CLOUDS BELOW 12,000 FEET WITH NO
       SIGNIFICANT WEATHER AND/OR OBSTRUCTIONS TO VISIBILITY.
       CURRENT SKY AND/OR WEATHER CONDITIONS ARE NOT AVAILABLE FOR
       CHILLICOTHE AND FARMINGTON.

MOZ001>031-035>038-043-044-053-054-042300-
...NORTHERN AND WESTERN MISSOURI...

CITY           SKY/WX    TMP DP  RH WIND       PRES   REMARKS
KANSAS CTY INT MOSUNNY   92  67  43 S15       29.94F HX  95
LEE`S SUMMIT   SUNNY     90  65  43 S12G20    29.96S HX  92
ST JOSEPH      SUNNY     90  68  48 S16       29.91F HX  94

$$
MOZ066>068-077>081-088>096-101>105-042300-
...SOUTHWEST MISSOURI...

CITY           SKY/WX    TMP DP  RH WIND       PRES   REMARKS
SPRINGFIELD    MOSUNNY   89  67  47 S8        30.00F HX  92
JOPLIN         MOSUNNY   89  70  53 S8        29.97  HX  94

$$
MOZ032>034-039>042-045>050-055>058-069>072-042300-
...CENTRAL MISSOURI...

CITY           SKY/WX    TMP DP  RH WIND       PRES   REMARKS
COLUMBIA       NOT AVBL
JEFFERSON CITY PTSUNNY   92  68  45 E8        29.96S HX  96
SEDALIA        MOSUNNY   93  65  39 S13       29.98F HX  95

$$
MOZ051-052-059>065-042300-
...EAST CENTRAL MISSOURI...

CITY           SKY/WX    TMP DP  RH WIND       PRES   REMARKS
ST LOUIS INTL  MOSUNNY   92  66  42 S5        29.99S HX  94

$$
MOZ072>076-082>087-097>100-106>115-042300-
...SOUTH CENTRAL AND SOUTHEAST MISSOURI...

CITY           SKY/WX    TMP DP  RH WIND       PRES   REMARKS
CAPE GIRARDEAU SUNNY     90  71  53 E3        29.99S HX  96
POPLAR BLUFF   MOSUNNY   89  70  53 SW3       29.98S HX  94
WEST PLAINS    MOSUNNY   89  66  46 SE6       30.04S HX  91

$$


USA.gov is the U.S. government's official web portal to all federal, state and local government web resources and services.